Location: Kruen
(47.5000°N, 11.5000°E)
Time: 16:32:01
(UTC+01:00)

Envisat - Visible Passes

Search period start: 27 October 2020 00:00
Search period end: 06 November 2020 00:00
Orbit: 764 x 766 km, 98.1° (Epoch: 27 October)

Date Brightness Start Highest point End Pass type
(mag) Time Alt. Az. Time Alt. Az. Time Alt. Az.
27 Oct 6.5 04:43:57 10° ENE 04:45:25 11° E 04:46:54 10° ESE visible
27 Oct 3.8 17:38:00 10° S 17:43:00 57° W 17:48:01 10° NNW visible
28 Oct 4.6 05:43:34 10° NNE 05:48:20 39° E 05:53:04 10° SSE visible
28 Oct 6.1 18:42:30 10° SW 18:45:43 17° W 18:48:57 10° NW visible
29 Oct 5.9 05:07:36 10° NE 05:11:13 19° E 05:14:48 10° SE visible
29 Oct 4.9 18:03:58 10° SSW 18:08:33 34° W 18:13:10 10° NNW visible
30 Oct 3.5 06:08:48 10° NNE 06:13:52 66° E 06:18:54 10° S visible
30 Oct 3.4 17:26:32 10° S 17:31:35 71° WSW 17:36:41 10° NNW visible
31 Oct 5.0 05:32:21 10° NNE 05:36:53 31° E 05:41:23 10° SSE visible
31 Oct 5.8 18:30:26 10° SW 18:34:13 21° W 18:38:01 10° NW visible
01 Nov 6.1 04:56:43 10° NE 04:59:42 15° E 05:02:40 10° SE visible
01 Nov 4.4 17:52:18 10° S 17:57:06 42° W 18:01:57 10° NNW visible
02 Nov 4.0 05:57:29 10° NNE 06:02:28 52° E 06:07:24 10° S visible
02 Nov 6.4 18:57:57 10° WSW 18:59:59 12° W 19:02:01 10° WNW visible
03 Nov 5.4 05:21:12 10° NE 05:25:25 26° E 05:29:36 10° SSE visible
03 Nov 5.4 18:18:32 10° SSW 18:22:44 26° W 18:26:56 10° NW visible
04 Nov 6.4 04:46:09 10° ENE 04:48:10 12° E 04:50:11 10° ESE visible
04 Nov 3.1 06:22:49 10° NNE 06:27:57 87° ESE 06:33:01 10° SSW visible
04 Nov 4.0 17:40:44 10° S 17:45:40 53° W 17:50:40 10° NNW visible
05 Nov 4.4 05:46:12 10° NNE 05:51:02 42° E 05:55:50 10° SSE visible
05 Nov 6.1 18:45:28 10° SW 18:48:27 16° W 18:51:27 10° NW visible
